Regional Weather Roundup
Issued by NWS

Home | Current Version | Previous Version | Text Only | Print | Product List | Glossary Off
Versions: 1 2 3 4 5 6 7 8 9 10 11 12 13 14 15 16 17 18 19 20 21 22 23 24 25 26 27

000
ASUS45 KCYS 101710
RWRWY

WYOMING REGIONAL WEATHER ROUNDUP
NATIONAL WEATHER SERVICE CHEYENNE WY
1000 AM MST SAT DEC 10 2016

NOTE:  "FAIR" INDICATES FEW OR NO CLOUDS BELOW 12,000 FEET
WITH NO SIGNIFICANT WEATHER AND/OR OBSTRUCTIONS TO VISIBILITY.

WYZ001-101800-
YELLOWSTONE NATIONAL PARK

CITY           SKY/WX    TMP DP  RH WIND       PRES   REMARKS
LK YELLOWSTONE   N/A     27  24  89 W9G17     29.73S WCI  18
W YELLOWSTONE  NOT AVBL

$$
WYZ002>013-054>058-071-098>099-101800-
NORTHERN WYOMING

CITY           SKY/WX    TMP DP  RH WIND       PRES   REMARKS
JACKSON        CLOUDY    34  34 100 S12       29.77S VSB 1   WCI  25
CODY           FAIR      17   9  70 CALM      29.71F
GREYBULL       FAIR      13   5  70 CALM      29.78F
WORLAND        FAIR      11   6  81 CALM      29.75F
SHERIDAN       PTSUNNY   14   6  70 NE3       29.77F
BUFFALO        FAIR      17   9  70 CALM      29.72S
GILLETTE       FAIR       8   4  83 S8        29.76F WCI  -4
HULETT         CLOUDY     9   3  78 CALM      29.80F
NEWCASTLE      FAIR       5   1  85 S3        29.85F

$$
WYZ014>020-022>026-101>103-101800-
CENTRAL WYOMING

CITY           SKY/WX    TMP DP  RH WIND       PRES   REMARKS
BIG PINEY      CLOUDY    29  26  89 CALM      29.83S
PINEDALE       CLOUDY    32  30  93 E3        29.84S
DUBOIS         CLOUDY    32  28  86 NW10      29.70F WCI  24
LANDER         FAIR      18   9  68 VRB3      29.72F
RIVERTON       FAIR      18   8  65 NE3       29.74F
CASPER         FAIR      37  27  67 S25G40    29.75F WCI  25
DOUGLAS        CLOUDY    44  27  51 VRB3      29.77S

$$
WYZ021-027>030-104>119-101800-
SOUTHERN WYOMING

CITY           SKY/WX    TMP DP  RH WIND       PRES   REMARKS
EVANSTON       HVY SNOW  32  30  92 SW15      29.91S VSB 1/4 WCI  22
KEMMERER       LGT SNOW  32  32 100 SW16G23   29.88F WCI  21
FORT BRIDGER   CLOUDY    37  36  99 SW23G32   29.91R WCI  25
ROCK SPRINGS   CLOUDY    36  29  75 SW10      29.89F WCI  28
DIXON          CLOUDY    37  26  64 SW10      29.98S WCI  30
RAWLINS        FAIR      37  20  50 SW29G45   29.85F WCI  25
SARATOGA       FAIR      37  27  65 SW22G29   29.88F WCI  27
LARAMIE        CLOUDY    40  21  46 W15         N/A  WCI  32
CHEYENNE       FAIR      47  21  35 W29G40    29.84F
TORRINGTON     CLOUDY    17  12  80 SE6       29.84F WCI   9
PINE BLUFFS    FAIR      28  21  74 SW7       29.87S WCI  21

$$




USA.gov is the U.S. government's official web portal to all federal, state and local government web resources and services.